Regional Weather Roundup
Issued by NWS

Home | Current Version | Previous Version | Graphics & Text | Print | Product List | Glossary On
Versions: 1 2 3 4 5 6 7 8 9 10 11 12 13 14 15 16 17 18 19 20 21 22 23 24 25 26 27 28 29 30 31 32 33 34 35 36 37 38 39 40 41 42 43 44 45 46 47 48 49 50
000
ASUS43 KFSD 301102
RWRSD

WEATHER ROUNDUP FOR SOUTH DAKOTA
NATIONAL WEATHER SERVICE SIOUX FALLS SD
600 AM CDT TUE AUG 30 2016

NOTE: "FAIR" INDICATES FEW OR NO CLOUDS BELOW 12,000 FEET WITH NO
SIGNIFICANT WEATHER AND/OR OBSTRUCTIONS TO VISIBILITY.


SDZ001>005-009-010-012>017-301200-
NORTHWEST AND NORTH CENTRAL SOUTH DAKOTA

CITY           SKY/WX    TMP DP  RH WIND       PRES   REMARKS
BUFFALO          N/A     61  53  75 E5        30.19S
FAITH            N/A     60  56  86 NE5       30.24S
MOBRIDGE       MOCLDY    58  50  75 CALM      30.22R
$$

SDZ012>016-024>037-041>051-057-063-072>074-301200-
SOUTHWEST AND SOUTH CENTRAL SOUTH DAKOTA

CITY           SKY/WX    TMP DP  RH WIND       PRES   REMARKS
RAPID CTY ARPT MOCLDY    64  62  93 E7        30.25S
PIERRE         CLOUDY    64  59  83 NE10      30.17S
CUSTER         PTCLDY    54  53  97 NW6       30.36S FOG
ELLSWORTH AFB  PTCLDY    65  65  97 E6        30.24
PHILIP         CLEAR     63  60  90 NE9       30.20S
PINE RIDGE     CLEAR     56  55  97 CALM      30.24S
WINNER         FAIR      66  62  87 S3        30.18R
$$

SDZ004>011-016>023-039-040-301200-
NORTHEAST SOUTH DAKOTA

CITY           SKY/WX    TMP DP  RH WIND       PRES   REMARKS
ABERDEEN       CLEAR     55  52  89 N7        30.24R
WATERTOWN      CLOUDY    64  60  87 N5        30.22F
SISSETON         N/A     55  53  93 N5        30.22S
$$

SDZ017-020-022-023-036>040-048>070-301200-
SOUTHEAST SOUTH DAKOTA

CITY           SKY/WX    TMP DP  RH WIND       PRES   REMARKS
SIOUX FALLS    CLOUDY    68  66  93 NE3       30.19S
HURON          PTCLDY    69  65  86 E8        30.18S
CHAMBERLAIN    PTCLDY    67  66  97 NE5       30.17S
MITCHELL       MOCLDY    67  66  97 E3        30.19R
YANKTON        CLOUDY    64  63  94 N7        30.18R
$$

ABBREVIATIONS USED IN REMARKS
   TC - TEMPERATURE IN CELSIUS
  WCI - WIND CHILL INDEX
   HX - HEAT INDEX
  VSB - VISIBILITY





USA.gov is the U.S. government's official web portal to all federal, state and local government web resources and services.